Wind_Speed
3 3 4 4 5 6 5 5 6 8 9 8 8 9 9 8 8 9 9 10 11 12 13 14 15 15 16 17 17 18 18 19 19 20 20 20 20 20 20 20 20 20 20 20 20 20 20 20 20
3 3 4 4 4 4 4 4 5 6 7 8 9 9 9 8 8 8 9 10 11 12 13 14 15 15 16 17 17 18 18 19 19 20 20 20 20 20 20 20 20 20 20 20 20 20 20 20 20
2 3 3 3 3 2 2 2 4 5 6 8 9 9 9 9 9 9 10 10 11 12 13 14 14 15 16 17 17 18 18 19 19 20 20 20 20 20 20 20 20 20 20 20 20 20 20 20 20
1 2 3 2 2 2 1 1 2 4 5 7 9 9 10 10 10 10 10 11 11 12 13 14 14 15 16 17 18 18 19 19 19 20 20 20 20 20 20 20 20 20 20 20 20 20 20 19 19
2 2 2 2 1 2 1 1 1 3 5 6 7 9 8 9 10 10 11 12 12 13 14 15 15 16 17 17 18 19 19 19 20 20 20 20 20 20 20 20 20 20 19 19 19 19 19 19 19
4 3 3 3 2 2 2 2 3 4 5 6 7 8 7 8 10 11 12 13 13 14 15 16 16 17 18 19 19 19 20 20 20 21 21 21 21 21 21 20 20 20 20 20 19 19 20 20 20
7 6 5 4 3 3 3 4 5 5 6 7 8 9 7 7 10 12 13 14 15 15 16 17 18 19 20 20 21 21 21 21 21 22 22 22 22 22 22 21 21 21 20 20 20 20 20 21 21
10 8 7 7 6 6 6 6 6 7 7 7 8 10 8 8 11 12 13 15 16 17 17 18 20 20 21 22 22 22 23 23 23 23 23 23 23 23 22 22 22 22 21 22 22 22 22 22 22
12 11 10 10 9 9 8 8 8 9 9 9 10 11 11 12 12 13 14 15 16 17 18 19 20 21 22 22 23 24 24 24 24 24 24 24 24 24 24 24 23 23 23 23 23 23 23 23 23
15 14 14 13 12 11 11 11 11 11 12 12 13 13 14 15 15 16 16 16 17 18 19 20 20 22 22 23 24 25 25 26 26 26 26 26 26 25 25 25 25 25 25 25 25 26 26 26 26
19 18 17 16 15 14 14 14 14 14 15 15 16 17 17 18 19 19 19 19 20 21 22 22 22 22 23 24 25 25 26 26 27 27 27 27 27 27 27 27 27 27 27 27 28 28 29 29 29
22 21 20 19 18 18 18 18 18 18 18 18 19 20 20 21 21 22 22 22 22 23 23 24 24 24 24 25 25 26 26 27 27 27 27 28 28 28 28 28 28 29 29 30 30 30 31 32 32
24 24 22 21 21 20 20 20 20 20 21 21 21 22 23 23 23 23 24 24 24 23 24 24 25 25 25 25 25 25 26 26 27 27 27 28 28 28 29 29 29 29 30 31 32 32 33 34 35
26 26 25 24 23 23 22 22 22 22 23 22 23 23 24 24 24 24 24 23 23 23 23 23 23 24 24 24 24 24 25 25 26 26 27 27 28 28 28 29 29 30 31 31 32 33 34 35 36
28 28 27 26 25 24 24 23 24 24 24 24 24 24 24 24 23 23 23 23 22 22 22 22 22 22 23 23 24 24 24 25 25 26 27 28 28 29 29 29 30 31 32 32 33 34 36 37 38
30 29 28 28 26 25 25 24 25 24 24 24 24 24 23 23 22 22 22 22 21 21 21 21 22 22 23 23 23 24 24 25 25 26 27 28 29 29 30 30 31 32 33 33 34 35 36 37 38
30 29 29 29 27 25 25 24 25 23 23 23 23 23 22 22 22 22 21 21 21 21 21 21 21 22 22 23 24 25 26 27 27 28 29 30 31 31 32 32 33 34 34 34 35 36 37 37 38
31 30 29 28 27 25 25 24 24 22 22 23 23 22 21 21 21 21 20 20 20 21 21 21 22 22 23 24 26 27 28 29 29 30 31 32 32 33 33 33 34 34 34 34 35 36 36 37 38
31 29 28 28 28 25 25 24 23 23 22 22 22 22 21 20 20 20 20 20 20 21 21 22 22 23 24 26 27 28 28 29 30 30 31 31 32 32 32 32 32 33 33 34 35 36 36 37 39
30 29 29 29 28 26 25 24 24 23 22 22 22 21 21 20 20 20 20 20 21 21 22 23 23 24 26 26 27 28 29 29 30 30 31 31 31 31 31 32 32 33 34 35 36 38 38 39 41
30 29 29 29 28 27 27 25 24 23 22 22 22 21 21 20 20 20 20 21 22 22 23 23 24 26 27 27 28 29 29 30 30 30 31 31 31 31 32 33 34 35 36 37 38 40 41 42 43
31 29 29 29 28 26 26 25 23 22 22 22 22 21 21 21 21 21 21 22 23 23 24 25 26 27 28 29 30 30 30 31 31 31 31 32 32 33 34 35 36 37 38 39 41 42 43 45 46
31 29 28 28 28 27 24 27 23 22 21 22 22 22 21 21 22 22 22 23 23 24 25 26 28 29 30 30 31 32 32 32 32 33 33 34 34 35 36 37 38 39 40 42 44 45 47 49 50
31 29 29 28 29 27 23 27 25 21 20 22 22 22 22 22 23 23 23 24 24 25 27 28 29 31 31 32 33 33 34 34 34 34 35 36 36 37 38 39 41 42 44 45 47 49 51 53 55
30 28 29 28 28 27 24 26 26 22 21 22 22 23 23 23 23 24 24 25 26 27 28 30 31 32 33 34 34 35 36 36 37 37 38 38 39 40 41 42 44 46 48 49 51 53 55 57 59
29 29 28 27 27 27 25 24 23 21 23 23 23 23 23 24 25 25 26 26 27 29 30 32 33 34 35 36 36 37 38 38 39 40 41 41 42 43 44 46 47 49 51 53 55 56 58 61 63
29 28 26 28 28 28 27 24 22 21 23 25 24 24 24 25 26 27 27 28 29 31 32 34 35 36 37 38 39 39 40 40 41 41 42 43 44 46 47 49 50 52 54 56 58 60 62 65 67
29 27 27 29 28 28 26 25 24 20 23 25 26 26 26 27 27 29 30 31 32 33 35 37 38 38 39 40 41 41 41 42 42 42 44 45 46 48 50 51 53 55 57 59 61 63 66 68 70
29 28 28 29 29 28 26 25 25 23 23 25 27 27 28 29 29 30 32 33 35 37 38 39 40 40 41 42 42 42 42 42 43 44 46 47 49 51 52 54 56 58 60 62 65 67 70 72 74
29 28 27 28 28 28 28 27 26 25 26 27 29 29 30 31 32 33 34 36 38 39 40 41 42 42 43 43 43 43 44 44 46 47 48 49 51 53 55 56 59 61 63 66 68 70 72 75 76
Wind_Direction
75 92 112 133 161 183 192 208 219 221 226 231 238 249 256 259 264 267 266 269 271 273 274 275 276 277 277 277 277 278 278 279 280 281 282 282 282 282 282 282 281 280 279 278 278 278 277 277 276
81 93 107 124 149 169 174 210 225 227 229 235 242 251 259 264 270 273 272 274 275 278 279 279 280 281 281 281 281 281 281 281 281 281 282 282 282 282 282 281 280 280 279 278 277 277 276 275 275
99 100 106 116 133 133 152 206 236 235 236 242 247 253 260 266 272 274 277 279 280 282 283 283 283 283 282 283 283 283 283 283 283 283 283 283 283 283 283 282 281 280 279 278 277 276 275 275 274
151 130 127 126 124 110 106 242 255 253 248 250 253 257 261 269 271 273 277 280 281 284 284 285 285 285 284 284 285 285 285 285 285 285 284 284 284 284 284 283 282 280 279 278 277 275 275 274 274
203 190 172 156 143 122 124 272 269 267 263 260 262 265 266 268 272 275 279 281 284 286 287 287 286 286 286 286 286 286 286 287 287 286 287 286 286 285 285 284 282 280 278 277 276 275 275 274 273
226 221 209 195 196 206 231 255 265 269 268 269 271 274 274 271 276 278 280 283 285 286 287 288 288 287 287 286 286 287 287 287 287 286 286 287 287 286 285 284 283 280 278 276 275 275 274 273 273
234 234 229 226 227 236 245 256 265 269 270 274 277 280 282 277 277 278 281 284 285 286 286 286 287 287 287 287 287 287 287 287 287 287 286 287 287 286 285 284 283 281 278 276 275 273 273 273 272
237 240 239 240 239 245 252 258 265 272 276 278 279 283 293 283 281 281 281 283 284 285 285 285 286 286 286 286 286 287 287 287 288 288 287 287 287 286 285 283 282 281 278 276 274 273 272 272 271
238 240 242 244 244 247 252 259 265 271 276 279 280 285 292 289 288 287 285 285 285 285 286 285 285 286 285 285 285 286 286 287 287 287 287 287 286 285 284 283 282 280 278 276 274 273 272 271 270
239 241 243 247 250 252 256 260 265 269 273 276 279 283 286 287 287 288 287 287 287 287 286 286 285 286 285 285 285 285 285 286 286 287 287 286 286 284 283 282 281 280 278 276 275 273 272 271 269
241 244 247 250 253 257 259 262 265 269 272 275 279 282 282 283 285 286 286 286 286 286 287 287 286 285 285 285 286 286 286 286 286 286 286 286 285 284 283 282 281 279 278 276 275 274 272 271 270
243 246 250 253 256 257 260 262 265 268 271 275 277 280 281 282 283 284 285 285 285 285 285 286 286 286 286 286 286 287 287 287 287 287 286 286 285 284 283 282 280 279 278 276 275 274 273 272 270
246 248 251 254 257 259 262 263 265 268 271 274 276 278 280 282 282 283 283 284 284 285 284 285 286 286 287 287 287 288 288 288 287 287 287 286 285 284 283 283 281 280 279 278 277 276 274 273 271
248 250 253 255 258 260 262 265 267 268 271 274 275 277 279 280 281 282 283 283 284 284 284 285 286 286 287 288 288 288 288 288 288 287 287 287 286 286 285 284 282 281 279 279 278 277 276 275 274
248 251 253 256 258 260 263 266 267 269 271 273 275 277 279 280 281 282 282 283 283 283 283 284 285 286 287 287 287 288 288 288 288 288 288 288 287 287 286 285 284 282 281 281 280 278 277 276 276
248 251 253 255 258 261 264 266 268 269 271 272 274 276 277 279 280 281 281 281 282 282 282 283 284 285 286 286 287 287 287 288 288 288 288 288 288 288 287 287 285 284 284 283 282 281 280 279 278
247 249 253 255 256 260 264 268 270 270 270 271 274 276 276 278 279 279 279 280 280 280 281 282 283 284 284 285 286 286 287 288 288 288 288 288 288 288 287 287 287 286 286 285 284 283 282 281 280
246 249 253 258 258 259 263 266 270 271 270 271 273 274 276 276 277 277 277 277 278 279 280 281 282 283 284 285 286 287 288 288 288 288 288 288 288 288 288 287 287 287 287 286 285 285 284 284 283
246 250 253 256 260 260 262 265 268 271 271 272 273 274 275 276 276 276 276 277 278 279 280 282 283 284 285 286 287 288 289 290 290 290 290 290 289 289 289 289 288 288 287 287 286 286 286 286 285
246 249 252 254 258 261 262 264 266 269 271 272 273 274 275 275 276 276 277 278 280 281 283 284 285 286 288 288 289 290 291 291 291 292 292 292 291 290 290 290 290 289 289 289 288 288 288 288 287
245 248 251 255 258 261 263 262 265 268 270 271 272 273 274 274 275 276 278 281 282 284 285 287 288 289 290 290 291 292 292 292 292 292 292 291 290 290 291 291 291 290 290 290 290 290 290 290 290
244 247 251 254 257 259 262 264 264 267 270 271 272 272 273 273 275 277 280 282 284 286 287 289 290 290 291 292 292 293 294 294 293 292 291 291 290 290 291 291 291 291 291 291 291 291 291 291 291
245 247 250 254 257 259 263 267 265 265 269 270 271 272 273 274 276 279 281 283 285 287 288 290 291 291 292 292 293 294 294 294 293 292 292 292 291 291 291 292 292 292 292 292 292 292 292 293 292
244 246 250 254 258 260 263 268 268 267 269 270 272 273 274 276 278 280 282 284 285 287 289 290 291 292 292 292 293 294 293 293 292 292 292 292 292 292 292 293 293 293 293 293 293 293 294 294 294
244 246 249 253 257 262 260 264 269 273 271 270 271 274 276 277 279 281 282 284 286 287 289 291 291 291 291 291 292 293 292 292 292 292 292 292 292 292 292 293 293 294 294 294 294 294 295 295 295
241 244 248 253 257 261 260 262 269 273 272 272 272 274 277 278 280 281 283 285 286 288 290 291 292 291 291 291 292 292 292 292 292 292 292 292 292 293 293 293 294 294 295 295 295 296 296 296 296
240 243 247 252 255 261 266 268 266 269 272 274 275 276 277 279 281 282 283 285 287 289 291 292 292 292 291 291 291 292 291 291 292 292 292 292 292 293 294 294 294 295 296 296 296 297 297 297 297
242 243 244 249 254 258 262 267 267 264 270 274 277 278 279 280 282 284 285 287 288 290 291 292 293 293 292 292 292 292 292 292 292 292 292 292 293 294 294 295 296 296 297 297 297 298 298 298 298
241 243 246 250 253 257 262 264 268 271 272 274 276 278 280 282 284 286 287 288 289 291 292 293 293 293 293 292 292 292 292 292 293 293 293 294 294 295 295 296 297 297 298 298 299 299 299 300 300
240 243 245 249 253 256 260 263 269 273 274 275 277 279 281 283 285 287 288 289 290 291 292 293 293 293 293 292 292 292 292 293 293 294 295 295 296 296 297 298 299 299 299 300 301 301 301 301 301
Height
5859 5858 5858 5859 5860 5861 5861 5861 5862 5863 5865 5866 5867 5868 5869 5871 5873 5876 5874 5874 5875 5876 5876 5877 5877 5878 5878 5878 5878 5878 5878 5878 5878 5878 5878 5878 5878 5878 5878 5877 5877 5877 5877 5877 5877 5877 5877 5877 5877
5859 5859 5860 5860 5860 5860 5861 5861 5862 5863 5864 5865 5866 5867 5868 5869 5870 5871 5871 5872 5873 5873 5874 5874 5875 5875 5875 5875 5876 5876 5876 5875 5875 5875 5875 5875 5875 5874 5874 5874 5874 5874 5874 5874 5874 5874 5874 5874 5874
5860 5860 5860 5860 5860 5860 5861 5861 5862 5863 5864 5865 5865 5866 5867 5868 5869 5869 5870 5870 5871 5872 5872 5872 5872 5873 5873 5873 5873 5873 5873 5873 5873 5872 5872 5872 5871 5871 5871 5871 5871 5871 5871 5870 5871 5871 5871 5871 5871
5860 5861 5861 5861 5860 5861 5861 5861 5862 5863 5863 5864 5864 5865 5866 5867 5867 5867 5868 5868 5869 5869 5870 5870 5870 5870 5870 5870 5870 5870 5870 5870 5869 5869 5869 5869 5868 5868 5868 5867 5867 5867 5867 5867 5867 5867 5868 5868 5868
5860 5861 5861 5861 5860 5860 5861 5861 5862 5862 5863 5863 5863 5864 5865 5865 5865 5866 5866 5866 5867 5867 5867 5867 5867 5867 5867 5867 5867 5867 5866 5866 5866 5866 5866 5865 5865 5865 5864 5864 5864 5864 5864 5864 5864 5864 5864 5864 5865
5860 5860 5861 5860 5860 5860 5861 5861 5862 5862 5862 5862 5862 5862 5863 5864 5864 5864 5864 5864 5864 5865 5865 5864 5864 5864 5864 5864 5864 5863 5863 5863 5863 5862 5862 5862 5862 5861 5861 5861 5860 5860 5860 5860 5860 5860 5861 5861 5861
5860 5860 5859 5859 5859 5860 5860 5860 5861 5861 5861 5861 5861 5861 5862 5862 5862 5862 5862 5862 5862 5862 5862 5862 5861 5861 5861 5860 5860 5860 5860 5859 5859 5859 5858 5858 5858 5857 5857 5857 5857 5856 5856 5856 5857 5857 5857 5857 5857
5857 5859 5858 5858 5858 5859 5859 5859 5860 5860 5860 5860 5860 5860 5860 5861 5860 5860 5860 5859 5859 5859 5859 5859 5858 5858 5857 5857 5856 5856 5856 5855 5855 5855 5854 5854 5854 5853 5853 5853 5852 5852 5852 5852 5852 5853 5853 5853 5853
5855 5857 5857 5857 5857 5857 5858 5858 5858 5859 5859 5859 5858 5858 5858 5858 5857 5857 5857 5857 5856 5856 5855 5856 5855 5854 5853 5853 5852 5852 5851 5851 5851 5850 5850 5850 5849 5849 5849 5848 5848 5848 5848 5848 5848 5848 5848 5848 5848
5853 5854 5854 5855 5855 5855 5856 5856 5856 5857 5857 5857 5857 5856 5856 5855 5855 5854 5854 5854 5853 5853 5852 5852 5851 5850 5849 5849 5848 5847 5847 5846 5846 5845 5845 5845 5844 5844 5844 5843 5843 5843 5842 5842 5842 5842 5843 5843 5843
5850 5851 5851 5852 5852 5853 5853 5854 5854 5854 5854 5854 5854 5854 5853 5852 5852 5851 5851 5850 5850 5849 5848 5847 5847 5846 5845 5844 5843 5843 5842 5841 5841 5840 5840 5839 5839 5839 5838 5838 5837 5837 5837 5836 5836 5836 5836 5836 5836
5846 5847 5848 5849 5849 5850 5850 5851 5851 5851 5851 5851 5850 5850 5849 5849 5848 5847 5847 5846 5845 5844 5843 5842 5842 5841 5841 5840 5839 5838 5837 5836 5835 5835 5834 5834 5833 5833 5832 5832 5831 5831 5830 5830 5830 5829 5829 5829 5829
5842 5843 5844 5845 5846 5846 5846 5847 5847 5847 5847 5846 5846 5845 5845 5844 5844 5843 5842 5841 5841 5840 5839 5838 5837 5836 5836 5835 5834 5833 5832 5831 5830 5829 5828 5828 5827 5826 5826 5825 5825 5824 5824 5823 5823 5822 5822 5821 5821
5837 5838 5839 5840 5841 5841 5842 5842 5843 5843 5842 5842 5841 5841 5840 5840 5839 5838 5838 5837 5836 5835 5834 5833 5832 5831 5830 5830 5829 5828 5827 5826 5825 5823 5822 5821 5821 5820 5819 5818 5818 5817 5816 5816 5815 5814 5814 5813 5813
5832 5834 5835 5835 5836 5836 5837 5838 5837 5838 5837 5837 5836 5836 5835 5835 5834 5834 5833 5832 5831 5830 5830 5829 5828 5827 5826 5825 5824 5823 5821 5820 5819 5818 5817 5815 5814 5813 5813 5812 5811 5810 5809 5808 5807 5806 5806 5805 5804
5826 5828 5829 5830 5831 5831 5833 5833 5832 5832 5832 5832 5831 5831 5830 5830 5829 5829 5828 5827 5827 5826 5825 5824 5823 5822 5821 5820 5819 5817 5816 5815 5814 5812 5811 5809 5808 5807 5806 5805 5803 5802 5801 5800 5799 5798 5797 5796 5796
5820 5822 5822 5824 5825 5825 5826 5826 5826 5827 5827 5826 5826 5826 5826 5825 5824 5824 5823 5822 5822 5821 5820 5820 5819 5818 5816 5815 5813 5812 5811 5809 5808 5806 5805 5803 5801 5800 5799 5797 5796 5794 5793 5792 5791 5789 5788 5787 5786
5814 5815 5816 5817 5818 5820 5820 5820 5820 5821 5821 5821 5820 5820 5820 5820 5819 5819 5818 5818 5817 5816 5816 5815 5814 5813 5811 5810 5808 5806 5805 5803 5801 5799 5798 5796 5794 5792 5791 5789 5788 5786 5785 5783 5782 5780 5779 5778 5776
5808 5809 5811 5811 5811 5814 5814 5814 5815 5815 5816 5815 5815 5815 5815 5815 5814 5814 5813 5813 5812 5812 5811 5810 5809 5807 5806 5804 5802 5801 5799 5797 5795 5792 5790 5788 5787 5785 5783 5781 5780 5778 5777 5775 5773 5772 5770 5768 5766
5801 5803 5804 5805 5805 5807 5808 5809 5809 5809 5810 5810 5810 5810 5810 5810 5809 5809 5808 5808 5807 5806 5805 5804 5803 5801 5800 5798 5796 5794 5792 5790 5788 5785 5783 5781 5779 5777 5775 5774 5772 5770 5768 5767 5764 5762 5761 5759 5756
5795 5797 5798 5799 5799 5800 5801 5803 5803 5804 5804 5804 5804 5804 5804 5804 5804 5804 5803 5803 5802 5801 5799 5798 5797 5795 5793 5791 5789 5787 5785 5783 5781 5779 5776 5774 5772 5770 5768 5766 5764 5762 5760 5758 5755 5753 5751 5749 5746
5789 5790 5792 5793 5793 5794 5795 5796 5798 5799 5798 5798 5798 5799 5799 5799 5799 5798 5798 5797 5796 5795 5793 5792 5790 5788 5786 5784 5782 5780 5778 5776 5774 5771 5769 5767 5765 5762 5760 5758 5755 5753 5751 5748 5746 5743 5740 5738 5735
5782 5784 5786 5786 5786 5788 5789 5788 5792 5793 5793 5793 5793 5793 5793 5793 5793 5793 5792 5791 5790 5789 5787 5785 5784 5782 5779 5777 5775 5773 5770 5768 5766 5764 5761 5759 5757 5754 5752 5749 5746 5744 5741 5738 5735 5732 5729 5725 5722
5775 5778 5779 5780 5780 5782 5785 5782 5784 5786 5788 5787 5787 5787 5788 5788 5788 5787 5786 5785 5784 5782 5781 5779 5777 5775 5772 5770 5768 5765 5763 5760 5758 5756 5753 5751 5748 5746 5743 5740 5737 5734 5731 5727 5724 5720 5717 5713 5708
5769 5772 5774 5774 5775 5776 5778 5777 5778 5780 5781 5781 5781 5781 5782 5782 5782 5781 5780 5779 5778 5776 5774 5772 5770 5768 5765 5763 5760 5758 5755 5752 5750 5747 5745 5742 5739 5736 5733 5730 5727 5723 5720 5716 5712 5708 5704 5699 5694
5762 5765 5768 5769 5769 5769 5770 5772 5774 5774 5773 5774 5775 5776 5776 5775 5775 5775 5774 5772 5771 5769 5767 5765 5763 5760 5758 5755 5752 5750 5747 5744 5741 5738 5735 5732 5729 5726 5723 5719 5716 5712 5707 5703 5699 5694 5689 5684 5678
5756 5759 5762 5762 5763 5764 5765 5766 5768 5769 5768 5767 5768 5769 5769 5769 5768 5768 5767 5765 5764 5762 5760 5757 5755 5752 5750 5747 5744 5741 5738 5735 5732 5729 5725 5722 5719 5715 5712 5708 5704 5699 5694 5689 5684 5679 5674 5668 5662
5750 5753 5754 5755 5756 5757 5760 5761 5762 5764 5763 5762 5761 5762 5762 5762 5761 5760 5759 5758 5756 5754 5751 5749 5746 5744 5741 5738 5735 5731 5728 5725 5722 5718 5715 5711 5708 5704 5700 5695 5691 5686 5680 5675 5669 5663 5657 5651 5644
5744 5746 5748 5749 5751 5752 5753 5756 5755 5757 5757 5756 5755 5755 5755 5754 5754 5753 5751 5749 5747 5745 5742 5740 5737 5734 5731 5728 5725 5721 5718 5715 5711 5708 5704 5700 5696 5691 5687 5682 5677 5671 5666 5659 5653 5646 5639 5632 5624
5736 5739 5741 5743 5745 5745 5747 5751 5750 5750 5749 5749 5748 5748 5747 5747 5745 5744 5742 5740 5738 5736 5733 5730 5727 5724 5721 5717 5714 5711 5708 5704 5700 5696 5692 5688 5683 5678 5673 5668 5662 5656 5649 5642 5635 5628 5620 5612 5604